Weather History for Marion, OH

Change the Weather History Date:

Friday, January 18, 2013

  Actual Average (KDLZ) Record (KDLZ)
Temperature  
Mean Temperature 25 °F -  
Max Temperature 34 °F 33 °F 61 °F (1952)
Min Temperature 16 °F 15 °F -19 °F (1977)
Degree Days  
Heating Degree Days 40    
Moisture  
Dew Point 16 °F    
Average Humidity 66    
Maximum Humidity 84    
Minimum Humidity 52    
Precipitation  
Precipitation 0.00 in - - ()
Sea Level Pressure  
Sea Level Pressure 30.38 in    
Wind  
Wind Speed 11 mph (SW)    
Max Wind Speed 25 mph    
Max Gust Speed 34 mph    
Visibility 10 miles    
Events      
Averages and records for this station are not official NWS values.
T = Trace of Precipitation, MM = Missing Value Source: NWS Daily Summary

Daily Weather History Graph

Daily Weather History Graph

Search for Another Location

Airport:

Trip Planner

Search our weather history database for the weather conditions in past years. The results will help you decide how hot, cold, wet, or windy it might be!

Date:

Astronomy

Jan. 18, 2013 Rise Set
Actual Time 7:52 AM EST 5:33 PM EST
Civil Twilight 7:22 AM EST 6:03 PM EST
Nautical Twilight 6:49 AM EST 6:36 PM EST
Astronomical Twilight 6:16 AM EST 7:09 PM EST
Moon 11:27 AM EST (1/18) 12:25 AM EST (1/18)
Length of Visible Light 10h 40m
Length of Day
9h 41m
Waxing Crescent, 47% of the Moon is Illuminated
Jan 18
Waxing Crescent
Jan 18
First Quarter
Jan 26
Full
Feb 3
Last Quarter
Feb 10
New

Hourly Weather History & Observations

Time (EST) Temp. Windchill Dew Point Humidity Pressure Visibility Wind Dir Wind Speed Gust Speed Precip Events Conditions
12:53 AM 19.9 °F 8.6 °F 9.0 °F 62% 30.39 in 10.0 mi NNW 10.4 mph - N/A   Clear
1:53 AM 19.0 °F 12.3 °F 10.9 °F 71% 30.43 in 10.0 mi WNW 4.6 mph - N/A   Clear
2:53 AM 19.0 °F 13.9 °F 10.9 °F 71% 30.45 in 10.0 mi WNW 3.5 mph - N/A   Mostly Cloudy
3:53 AM 19.0 °F 13.9 °F 12.0 °F 74% 30.45 in 10.0 mi WSW 3.5 mph - N/A   Mostly Cloudy
4:53 AM 19.0 °F 12.3 °F 12.9 °F 77% 30.46 in 10.0 mi WSW 4.6 mph - N/A   Clear
5:53 AM 16.0 °F 10.4 °F 12.0 °F 84% 30.47 in 10.0 mi SSW 3.5 mph - N/A   Clear
6:53 AM 19.0 °F 10.0 °F 12.9 °F 77% 30.48 in 10.0 mi WSW 6.9 mph - N/A   Clear
7:53 AM 18.0 °F 9.8 °F 12.9 °F 81% 30.49 in 10.0 mi SW 5.8 mph - N/A   Clear
8:53 AM 21.0 °F 13.4 °F 15.1 °F 78% 30.51 in 10.0 mi WSW 5.8 mph - N/A   Clear
9:53 AM 25.0 °F 16.3 °F 15.1 °F 66% 30.52 in 10.0 mi WSW 8.1 mph - N/A   Clear
10:53 AM 27.0 °F 16.7 °F 15.1 °F 61% 30.52 in 10.0 mi SW 11.5 mph - N/A   Clear
11:53 AM 30.0 °F 20.5 °F 15.1 °F 54% 30.48 in 10.0 mi SSW 11.5 mph - N/A   Clear
12:53 PM 30.9 °F 19.8 °F 16.0 °F 54% 30.43 in 10.0 mi SSW 16.1 mph - N/A   Mostly Cloudy
1:53 PM 33.1 °F 22.6 °F 17.1 °F 52% 30.40 in 10.0 mi SW 16.1 mph 24.2 mph N/A   Clear
2:53 PM 34.0 °F 23.8 °F 18.0 °F 52% 30.37 in 10.0 mi SSW 16.1 mph 27.6 mph N/A   Clear
3:53 PM 33.1 °F 21.5 °F 18.0 °F 54% 30.35 in 10.0 mi SSW 19.6 mph 27.6 mph N/A   Clear
4:53 PM 32.0 °F 18.6 °F 19.9 °F 61% 30.32 in 10.0 mi South 25.3 mph 33.4 mph N/A   Clear
5:53 PM 30.9 °F 17.2 °F 19.0 °F 61% 30.31 in 10.0 mi SSW 25.3 mph 34.5 mph N/A   Clear
6:53 PM 30.9 °F 18.4 °F 19.9 °F 64% 30.30 in 10.0 mi South 20.7 mph 31.1 mph N/A   Clear
7:53 PM 30.9 °F 18.1 °F 19.9 °F 64% 30.28 in 10.0 mi South 21.9 mph 29.9 mph N/A   Clear
8:53 PM 30.9 °F 17.5 °F 21.0 °F 67% 30.25 in 10.0 mi South 24.2 mph 33.4 mph N/A   Clear
9:53 PM 30.9 °F 17.8 °F 21.9 °F 69% 30.22 in 10.0 mi SSW 23.0 mph 32.2 mph N/A   Clear
10:53 PM 32.0 °F 19.5 °F 21.9 °F 66% 30.19 in 10.0 mi SSW 21.9 mph 31.1 mph N/A   Clear
11:53 PM 33.1 °F 20.3 °F 23.0 °F 66% 30.16 in 10.0 mi SSW 24.2 mph 33.4 mph N/A   Clear